Lexington Weather

Lexington, Massachusetts, USA

44°F
4/22/2024 9:12am 
  • Lexington Conditions: Clear
  • Temperature: 44.2°F / 6.8°CWarmer 3.4°F than last hour.
  • Dew Point: 27.3°FDecreased 0.7°Fsince last hour.
  • Relative Humidity: 51%Decreased 9.0% since last hour.
  • Wind: Calm, 10-min avg: Calm, gust: 4 mph
  • Barometer: 29.96 in Steady
  • Visibility: 10 miles
  • Rain Today: 0.00 in
  •   

Regional Weather Roundup
for Boston, MA

        
000
ASUS41 KBOX 152110
RWRBOX

REGIONAL WEATHER ROUNDUP
NATIONAL WEATHER SERVICE BOSTON/NORTON MA
500 PM EDT MON APR 15 2024

NOTE:  "FAIR" INDICATES FEW OR NO CLOUDS BELOW 12,000 FEET WITH NO 
SIGNIFICANT WEATHER AND/OR OBSTRUCTIONS TO VISIBILITY.

MAZALL-152200-
EASTERN MASSACHUSETTS
  
CITY           SKY/WX    TMP DP  RH WIND       PRES   REMARKS
BOSTON         PTSUNNY   69  40  34 NW15G30   29.78R                  
BEVERLY        CLOUDY    67  38  34 W16G29    29.78R                  
LAWRENCE       SUNNY     66  31  27 W20G38    29.80R                  
BEDFORD        PTSUNNY   65  38  36 W15G25    29.79R                  
NORWOOD        PTSUNNY   72  42  34 NW12G25   29.78R                  
MARSHFIELD     PTSUNNY   61  46  59 VRB6      29.77S                  
PLYMOUTH       MOSUNNY   70  49  47 E7        29.76R                  
TAUNTON        MOSUNNY   76  45  33 MISG      29.76R                  
NEW BEDFORD    MOSUNNY   67  50  54 SW13      29.78R                  
$$

MAZALL-152200-
CAPE COD AND THE ISLANDS
  
CITY           SKY/WX    TMP DP  RH WIND       PRES   REMARKS
FALMOUTH       SUNNY     66  46  48 W16G28    29.77S                  
HYANNIS        SUNNY     61  47  59 SW10      29.78S                  
CHATHAM        SUNNY     56  48  74 SW6       29.81R                  
PROVINCETOWN   MOSUNNY   64  49  57 S10G17    29.79S                  
NANTUCKET      SUNNY     52  46  80 SW10      29.82R                  
MARTHAS VNYRD  SUNNY     62  51  67 SW9       29.80S                  
$$
 
MAZALL-152200-
CENTRAL AND WESTERN MASSACHUSETTS
  
CITY           SKY/WX    TMP DP  RH WIND       PRES   REMARKS
WORCESTER      MOSUNNY   64  37  36 NW20G31   29.82R                  
FITCHBURG      MOSUNNY   67  35  30 W18G26    29.82R                  
ORANGE         CLOUDY    63  35  35 W10G23    29.84R                  
SPRINGFIELD    NOT AVBL                                               
WESTFIELD      PTSUNNY   68  39  34 NW14      29.83R                  
NORTH ADAMS    MOSUNNY   61  36  39 W15G26    29.87R                  
PITTSFIELD     SUNNY     58  36  43 NW16G29   29.85R                  
$$
 
RIZALL-152200-
RHODE ISLAND
  
CITY           SKY/WX    TMP DP  RH WIND       PRES   REMARKS
PROVIDENCE     MOSUNNY   75  39  27 W14G33    29.77R                  
NEWPORT        SUNNY     62  50  64 SW12G21   29.78S                  
BLOCK ISLAND   SUNNY     60  51  72 SW16G25   29.81R                  
SMITHFIELD     PTSUNNY   72  40  31 NW15G23   29.79R                  
WESTERLY       SUNNY     66  49  54 S14G23    29.79R                  
$$
 
CTZALL-152200-
CONNECTICUT
  
CITY           SKY/WX    TMP DP  RH WIND       PRES   REMARKS
BRADLEY INTL   MOSUNNY   71  42  35 NW13G25   29.82R                  
HARTFORD       SUNNY     73  44  35 NW14G24   29.79R                  
PLAINVILLE     FAIR      71  43  36 N8        29.80R                  
BRIDGEPORT     PTSUNNY   72  44  36 SW8       29.77R                  
DANBURY        SUNNY     75  38  26 NW12G21   29.80R                  
GROTON         SUNNY     62  48  60 S14       29.78R                  
NEW HAVEN      PTSUNNY   74  47  38 VRB3      29.77R                  
CHESTER        MOSUNNY   77  37  24 W9G17     29.79R                  
MERIDEN        PTSUNNY   74  39  28 N14       29.79R                  
WILLIMANTIC    MOSUNNY   72  40  31 NW12G23   29.79R                  
OXFORD         MOSUNNY   72  40  31 NW14G23   29.81R                  
$$

MEZ002-015-021-024-NHZ003-005-008-011-012-014-VTZ005-008-152200-
NORTHERN NEW ENGLAND
  
CITY           SKY/WX    TMP DP  RH WIND       PRES   REMARKS
PORTLAND ME    CLOUDY    57  42  57 NW10      29.80R                  
BANGOR ME      PTSUNNY   61  37  41 W10       29.76R                  
CONCORD NH     MOSUNNY   58  43  57 NW12G23   29.83R                  
MANCHESTER NH  PTSUNNY   64  41  42 NW24G31   29.81R                  
NASHUA NH      MOSUNNY   66  32  28 W15G23    29.82R                  
PORTSMOUTH NH  MOSUNNY   66  39  38 NW20G26   29.78R                  
JAFFREY NH     MOSUNNY   61  31  32 W9G28     29.84R                  
KEENE NH       MOSUNNY   61  34  36 W13G22    29.84R                  
BURLINGTON VT  PTSUNNY   56  32  40 NW6       29.87R                  
MT. WASHINGTON BLWGSNOW  27  27 100 NW47G56     N/A  VSB 0   WCI   7  
$$

NYZ052-076-152200-
EASTERN NEW YORK
  
CITY           SKY/WX    TMP DP  RH WIND       PRES   REMARKS
ALBANY         MOSUNNY   62  36  37 NW18G28   29.90R                  
NEW YORK CITY  PTSUNNY   77  42  28 W14G21    29.77S                  
$$
 
ANZALL-152200-
MARINE OBSERVATIONS
  
STATION/POSITION TIME  TEMP    WIND        PRES    VSBY  WAVE
                       AIR SEA DIR/SP/G                  HT/PER
                 (UTC) (F)     (DEG/KT/KT) (MB)    (MI)  (FT/S)
BOSTON BUOY      2050   51     160/  6/  8 1008.2R         3/10
BUZZARDS BAY     2000   49     200/ 13/ 14 1009.2R
NANTUCKET SOUND  2040   50 47  210/  8/ 10 1008.5R
MASS BAY-STELLWA 1904   49 46  160/ 12/ 14 1007.6F  1 7/8  3/11
ISLE OF SHOALS   2000   53     160/ 15/ 16 1007.0R
S OF BLOCK IS    2056      45                N/A           6/ 8
$$

......................KEY.........................
  SKY/WX - SKY CONDITION/PRESENT WEATHER
  TMP    - TEMPERATURE IN FAHRENHEIT
  DWPT   - DEWPOINT IN FAHRENHEIT
  RH     - RELATIVE HUMIDITY IN PERCENT
  WIND   - DIRECTION AND SPEED IN MPH
  PRES   - MEAN SEA LEVEL PRESSURE IN INCHES OF HG
  WCI    - WIND CHILL INDEX
  VSB    - VISIBILITY IN MILES
  HX     - HEAT INDEX
  TC     - TEMPERATURE IN CELSIUS
  VRB    - VARIABLE WIND DIRECTION
  N/A    - NOT AVAILABLE
  
      

Other recent Regional Weather Roundups

Mon Apr 22, 9:10am EDT

Mon Apr 22, 8:10am EDT

Mon Apr 22, 7:10am EDT

Mon Apr 22, 6:10am EDT

Mon Apr 22, 5:10am EDT

Mon Apr 22, 4:10am EDT

Mon Apr 22, 3:10am EDT

Mon Apr 22, 2:10am EDT

Mon Apr 22, 1:10am EDT

Mon Apr 22, 12:10am EDT

Sun Apr 21, 11:10pm EDT

Sun Apr 21, 10:10pm EDT

Sun Apr 21, 9:10pm EDT

Sun Apr 21, 8:10pm EDT

Sun Apr 21, 7:10pm EDT

Sun Apr 21, 6:10pm EDT

Sun Apr 21, 5:10pm EDT

Sun Apr 21, 4:10pm EDT

Sun Apr 21, 3:10pm EDT

Sun Apr 21, 2:10pm EDT

Sun Apr 21, 1:10pm EDT

Sun Apr 21, 12:10pm EDT

Sun Apr 21, 11:10am EDT

Sun Apr 21, 10:10am EDT

Sun Apr 21, 9:10am EDT

Sun Apr 21, 8:10am EDT

Sun Apr 21, 7:10am EDT

Sun Apr 21, 6:10am EDT

Sun Apr 21, 5:10am EDT

Sun Apr 21, 4:10am EDT

Sun Apr 21, 3:10am EDT

Sun Apr 21, 2:10am EDT

Sun Apr 21, 1:10am EDT

Sun Apr 21, 12:10am EDT

Sat Apr 20, 11:10pm EDT

Sat Apr 20, 10:10pm EDT

Sat Apr 20, 9:10pm EDT

Sat Apr 20, 8:10pm EDT

Sat Apr 20, 7:10pm EDT

Sat Apr 20, 6:10pm EDT

Sat Apr 20, 5:10pm EDT

Sat Apr 20, 4:10pm EDT

Sat Apr 20, 3:10pm EDT

Sat Apr 20, 2:10pm EDT

Sat Apr 20, 1:10pm EDT

Sat Apr 20, 12:10pm EDT

Sat Apr 20, 11:10am EDT

Sat Apr 20, 10:10am EDT

Sat Apr 20, 9:10am EDT

Sat Apr 20, 8:10am EDT

Sat Apr 20, 7:10am EDT

Sat Apr 20, 6:10am EDT

Sat Apr 20, 5:10am EDT

Sat Apr 20, 4:10am EDT

Sat Apr 20, 3:10am EDT

Sat Apr 20, 2:10am EDT

Sat Apr 20, 1:10am EDT

Sat Apr 20, 12:10am EDT

Fri Apr 19, 11:10pm EDT

Fri Apr 19, 10:10pm EDT

Fri Apr 19, 9:10pm EDT

Fri Apr 19, 8:10pm EDT

Fri Apr 19, 7:10pm EDT

Fri Apr 19, 6:10pm EDT

Fri Apr 19, 5:10pm EDT

Fri Apr 19, 4:10pm EDT

Fri Apr 19, 3:10pm EDT

Fri Apr 19, 2:10pm EDT

Fri Apr 19, 1:10pm EDT

Fri Apr 19, 12:10pm EDT

Fri Apr 19, 11:10am EDT

Fri Apr 19, 10:10am EDT

Fri Apr 19, 9:10am EDT

Fri Apr 19, 8:10am EDT

Fri Apr 19, 7:10am EDT

Fri Apr 19, 6:10am EDT

Fri Apr 19, 5:10am EDT

Fri Apr 19, 4:10am EDT

Fri Apr 19, 3:10am EDT

Fri Apr 19, 2:10am EDT

Fri Apr 19, 1:10am EDT

Fri Apr 19, 12:10am EDT

Thu Apr 18, 11:10pm EDT

Thu Apr 18, 10:10pm EDT

Thu Apr 18, 9:10pm EDT

Thu Apr 18, 8:10pm EDT

Thu Apr 18, 7:10pm EDT

Thu Apr 18, 6:10pm EDT

Thu Apr 18, 5:10pm EDT

Thu Apr 18, 4:10pm EDT

Thu Apr 18, 3:10pm EDT

Thu Apr 18, 2:10pm EDT

Thu Apr 18, 1:10pm EDT

Thu Apr 18, 12:10pm EDT

Thu Apr 18, 11:10am EDT

Thu Apr 18, 10:10am EDT

Thu Apr 18, 9:10am EDT

Thu Apr 18, 8:10am EDT

Thu Apr 18, 7:10am EDT

Thu Apr 18, 6:10am EDT

Thu Apr 18, 5:10am EDT

Thu Apr 18, 4:10am EDT

Thu Apr 18, 3:10am EDT

Thu Apr 18, 2:10am EDT

Thu Apr 18, 1:10am EDT

Thu Apr 18, 12:10am EDT

Wed Apr 17, 11:10pm EDT

Wed Apr 17, 10:10pm EDT

Wed Apr 17, 9:10pm EDT

Wed Apr 17, 8:10pm EDT

Wed Apr 17, 7:10pm EDT

Wed Apr 17, 6:10pm EDT

Wed Apr 17, 5:10pm EDT

Wed Apr 17, 4:10pm EDT

Wed Apr 17, 3:10pm EDT

Wed Apr 17, 2:10pm EDT

Wed Apr 17, 1:10pm EDT

Wed Apr 17, 12:10pm EDT

Wed Apr 17, 11:10am EDT

Wed Apr 17, 10:10am EDT

Wed Apr 17, 9:10am EDT

Wed Apr 17, 8:10am EDT

Wed Apr 17, 7:10am EDT

Wed Apr 17, 6:10am EDT

Wed Apr 17, 5:10am EDT

Wed Apr 17, 4:10am EDT

Wed Apr 17, 3:10am EDT

Wed Apr 17, 2:10am EDT

Wed Apr 17, 1:10am EDT

Wed Apr 17, 12:10am EDT

Tue Apr 16, 11:10pm EDT

Tue Apr 16, 10:10pm EDT

Tue Apr 16, 9:10pm EDT

Tue Apr 16, 8:10pm EDT

Tue Apr 16, 7:10pm EDT

Tue Apr 16, 6:10pm EDT

Tue Apr 16, 5:10pm EDT

Tue Apr 16, 4:10pm EDT

Tue Apr 16, 3:10pm EDT

Tue Apr 16, 2:10pm EDT

Tue Apr 16, 1:10pm EDT

Tue Apr 16, 12:10pm EDT

Tue Apr 16, 11:10am EDT

Tue Apr 16, 10:10am EDT

Tue Apr 16, 9:10am EDT

Tue Apr 16, 8:10am EDT

Tue Apr 16, 7:10am EDT

Tue Apr 16, 6:10am EDT

Tue Apr 16, 5:10am EDT

Tue Apr 16, 4:10am EDT

Tue Apr 16, 3:10am EDT

Tue Apr 16, 2:10am EDT

Tue Apr 16, 1:10am EDT

Tue Apr 16, 12:10am EDT

Mon Apr 15, 11:10pm EDT

Mon Apr 15, 10:10pm EDT

Mon Apr 15, 9:10pm EDT

Mon Apr 15, 8:10pm EDT

Mon Apr 15, 7:10pm EDT

Mon Apr 15, 6:10pm EDT

Mon Apr 15, 4:10pm EDT

Mon Apr 15, 3:10pm EDT

Mon Apr 15, 2:10pm EDT

Mon Apr 15, 1:10pm EDT

Mon Apr 15, 12:10pm EDT

Mon Apr 15, 11:10am EDT

Mon Apr 15, 10:10am EDT